SAS20W LIMC-ENGM

Flight info

Callsign SAS20W
Flight time 2h 3m
Altitude 38000
Route PEPAG DCT ABESI N851 UTAVO DCT ROLSA DCT LOKTA/N0440F390 DCT TEDGO DCT HAREM DCT LOHRE DCT ELNAT DCT RAXLU DCT SABAK L997 REGMA DCT LUNIP
Aircraft A320/M-SDE3FGHIJ1RWXYZ/ALB1

Departure

Time 2026-05-06 12:32
Airport Milan Malpensa International Airport (LIMC)

Arrival

Time 2026-05-06 14:35
Airport Oslo-Gardermoen International Airport (ENGM)
Time Latitude Longitude Altitude Speed Heading
2026-05-06 11:56 45.62551 8.71672 741 ft 0 kts 169°
2026-05-06 12:19 45.62559 8.71670 741 ft 4 kts 169°
2026-05-06 12:20 45.62586 8.71663 740 ft 4 kts 169°
2026-05-06 12:20 45.62611 8.71653 738 ft 4 kts 148°
2026-05-06 12:20 45.62623 8.71634 738 ft 2 kts 90°
2026-05-06 12:20 45.62625 8.71656 738 ft 4 kts 81°
2026-05-06 12:21 45.62631 8.71693 740 ft 4 kts 76°
2026-05-06 12:21 45.62634 8.71713 741 ft 0 kts 79°
2026-05-06 12:24 45.62634 8.71715 741 ft 1 kts 79°
2026-05-06 12:24 45.62642 8.71773 739 ft 10 kts 79°
2026-05-06 12:24 45.62595 8.71846 739 ft 13 kts 172°
2026-05-06 12:25 45.62488 8.71876 741 ft 17 kts 168°
2026-05-06 12:25 45.62360 8.71911 740 ft 20 kts 169°
2026-05-06 12:25 45.62215 8.71953 741 ft 22 kts 168°
2026-05-06 12:25 45.62056 8.71994 741 ft 25 kts 168°
2026-05-06 12:26 45.61884 8.72042 741 ft 26 kts 169°
2026-05-06 12:26 45.61699 8.72093 740 ft 28 kts 169°
2026-05-06 12:26 45.61505 8.72147 741 ft 28 kts 169°
2026-05-06 12:26 45.61306 8.72203 742 ft 30 kts 169°
2026-05-06 12:27 45.61120 8.72255 741 ft 28 kts 168°
2026-05-06 12:27 45.60928 8.72306 741 ft 28 kts 171°
2026-05-06 12:27 45.60743 8.72357 741 ft 26 kts 169°
2026-05-06 12:27 45.60641 8.72454 742 ft 18 kts 103°
2026-05-06 12:28 45.60625 8.72650 742 ft 22 kts 96°
2026-05-06 12:28 45.60609 8.72889 742 ft 26 kts 96°
2026-05-06 12:28 45.60589 8.73148 742 ft 23 kts 95°
2026-05-06 12:28 45.60682 8.73296 742 ft 22 kts 24°
2026-05-06 12:29 45.60831 8.73384 742 ft 24 kts 21°
2026-05-06 12:29 45.60988 8.73381 742 ft 24 kts 350°
2026-05-06 12:29 45.61160 8.73335 742 ft 27 kts 348°
2026-05-06 12:29 45.61351 8.73282 742 ft 29 kts 349°
2026-05-06 12:30 45.61535 8.73231 742 ft 24 kts 349°
2026-05-06 12:30 45.61619 8.73282 741 ft 15 kts 82°
2026-05-06 12:30 45.61625 8.73442 741 ft 17 kts 111°
2026-05-06 12:30 45.61585 8.73606 741 ft 14 kts 82°
2026-05-06 12:31 45.61621 8.73734 739 ft 13 kts 20°
2026-05-06 12:31 45.61727 8.73707 740 ft 24 kts 349°
2026-05-06 12:31 45.62186 8.73579 740 ft 116 kts 349°
2026-05-06 12:31 45.63234 8.73299 812 ft 181 kts 352°
2026-05-06 12:32 45.64491 8.73107 1685 ft 182 kts 12°
2026-05-06 12:32 45.65627 8.73920 2398 ft 193 kts 50°
2026-05-06 12:32 45.66371 8.75622 2731 ft 214 kts 63°
2026-05-06 12:32 45.67448 8.77169 3406 ft 225 kts 33°
2026-05-06 12:33 45.68758 8.78360 4346 ft 223 kts 39°
2026-05-06 12:33 45.69955 8.79784 5267 ft 225 kts 44°
2026-05-06 12:33 45.71112 8.81320 6264 ft 230 kts 51°
2026-05-06 12:33 45.71920 8.83316 7026 ft 241 kts 76°
2026-05-06 12:34 45.72118 8.85737 7754 ft 250 kts 98°
2026-05-06 12:34 45.71653 8.88128 8602 ft 250 kts 122°
2026-05-06 12:34 45.70686 8.90179 9529 ft 250 kts 130°
2026-05-06 12:34 45.69671 8.92241 10216 ft 263 kts 123°
2026-05-06 12:35 45.69135 8.94881 10562 ft 295 kts 93°
2026-05-06 12:35 45.69640 8.97850 10869 ft 326 kts 62°
2026-05-06 12:35 45.71209 9.00328 11136 ft 352 kts 34°
2026-05-06 12:35 45.73491 9.01795 11482 ft 368 kts 13°
2026-05-06 12:36 45.76052 9.02240 12125 ft 374 kts
2026-05-06 12:36 45.78630 9.02385 12978 ft 377 kts
2026-05-06 12:36 45.81275 9.02523 13751 ft 383 kts
2026-05-06 12:36 45.83961 9.02658 14364 ft 390 kts
2026-05-06 12:37 45.86687 9.02794 15011 ft 394 kts
2026-05-06 12:37 45.89447 9.02933 15666 ft 399 kts
2026-05-06 12:37 45.92240 9.03075 16312 ft 404 kts
2026-05-06 12:37 45.95058 9.03219 17000 ft 408 kts
2026-05-06 12:38 45.97907 9.03366 17651 ft 412 kts
2026-05-06 12:38 46.00788 9.03515 18306 ft 417 kts
2026-05-06 12:38 46.03702 9.03662 18968 ft 422 kts
2026-05-06 12:38 46.06654 9.03809 19642 ft 427 kts 360°
2026-05-06 12:39 46.09643 9.03958 20220 ft 433 kts 359°
2026-05-06 12:39 46.12668 9.04110 20857 ft 437 kts 359°
2026-05-06 12:39 46.15719 9.04265 21446 ft 441 kts 359°
2026-05-06 12:39 46.18802 9.04447 21951 ft 446 kts 360°
2026-05-06 12:40 46.21923 9.04687 22521 ft 451 kts
2026-05-06 12:40 46.25067 9.04965 23070 ft 455 kts
2026-05-06 12:40 46.28247 9.05261 23577 ft 460 kts
2026-05-06 12:40 46.31454 9.05565 24012 ft 464 kts
2026-05-06 12:41 46.34693 9.05864 24443 ft 468 kts
2026-05-06 12:41 46.37954 9.06152 24835 ft 472 kts 360°
2026-05-06 12:41 46.41248 9.06434 25237 ft 476 kts 359°
2026-05-06 12:41 46.44559 9.06712 25623 ft 479 kts 360°
2026-05-06 12:42 46.47904 9.06991 26015 ft 483 kts 359°
2026-05-06 12:42 46.51276 9.07272 26384 ft 487 kts 359°
2026-05-06 12:42 46.54669 9.07554 26750 ft 491 kts 359°
2026-05-06 12:42 46.58088 9.07842 27152 ft 494 kts 359°
2026-05-06 12:43 46.61537 9.08136 27533 ft 498 kts 359°
2026-05-06 12:43 46.64999 9.08435 27894 ft 500 kts 359°
2026-05-06 12:43 46.68478 9.08741 28268 ft 503 kts 359°
2026-05-06 12:43 46.71986 9.09049 28587 ft 506 kts 359°
2026-05-06 12:44 46.75512 9.09351 28895 ft 509 kts 359°
2026-05-06 12:44 46.79058 9.09650 29194 ft 513 kts 359°
2026-05-06 12:44 46.82638 9.09953 29514 ft 517 kts 359°
2026-05-06 12:44 46.86232 9.10261 29915 ft 517 kts 359°
2026-05-06 12:45 46.89822 9.10570 30377 ft 516 kts 359°
2026-05-06 12:45 46.93405 9.10881 30836 ft 515 kts 359°
2026-05-06 12:45 47.00544 9.11500 31694 ft 513 kts 359°
2026-05-06 12:46 47.04103 9.11809 32160 ft 512 kts 359°
2026-05-06 12:46 47.07646 9.12119 32659 ft 510 kts 359°
2026-05-06 12:46 47.11141 9.12429 33114 ft 509 kts 359°
2026-05-06 12:46 47.14668 9.12743 33589 ft 508 kts 359°
2026-05-06 12:47 47.18193 9.13055 34047 ft 506 kts 359°
2026-05-06 12:47 47.21704 9.13363 34439 ft 505 kts 359°
2026-05-06 12:47 47.25207 9.13664 34906 ft 502 kts 359°
2026-05-06 12:47 47.28679 9.13962 35444 ft 498 kts 359°
2026-05-06 12:48 47.32130 9.14259 35916 ft 494 kts 360°
2026-05-06 12:48 47.35547 9.14554 36369 ft 491 kts
2026-05-06 12:48 47.38949 9.14853 36795 ft 488 kts
2026-05-06 12:48 47.42329 9.15153 37199 ft 486 kts
2026-05-06 12:49 47.45695 9.15455 37607 ft 483 kts
2026-05-06 12:49 47.49041 9.15755 37824 ft 481 kts
2026-05-06 12:49 47.52382 9.16053 37853 ft 480 kts
2026-05-06 12:50 47.57919 9.16537 37850 ft 479 kts
2026-05-06 12:50 47.64575 9.17117 37853 ft 479 kts
2026-05-06 12:51 47.71248 9.17709 37836 ft 481 kts
2026-05-06 12:51 47.77923 9.18307 37824 ft 481 kts
2026-05-06 12:52 47.84606 9.18910 37823 ft 481 kts
2026-05-06 12:52 47.91283 9.19505 37815 ft 481 kts
2026-05-06 12:53 47.97974 9.20106 37809 ft 482 kts
2026-05-06 12:53 48.04673 9.20714 37813 ft 482 kts
2026-05-06 12:54 48.11376 9.21318 37820 ft 483 kts
2026-05-06 12:54 48.18085 9.21922 37812 ft 483 kts
2026-05-06 12:55 48.24803 9.22537 37807 ft 484 kts
2026-05-06 12:55 48.31523 9.23155 37811 ft 484 kts
2026-05-06 12:56 48.38210 9.23766 37808 ft 485 kts
2026-05-06 12:56 48.44949 9.24379 37808 ft 486 kts
2026-05-06 12:57 48.51702 9.24994 37789 ft 486 kts
2026-05-06 12:57 48.58448 9.25611 37781 ft 486 kts
2026-05-06 12:58 48.65193 9.26303 37782 ft 487 kts
2026-05-06 12:58 48.71935 9.27333 37791 ft 487 kts
2026-05-06 12:59 48.78675 9.28481 37792 ft 487 kts
2026-05-06 12:59 48.85417 9.29573 37797 ft 487 kts
2026-05-06 13:00 48.92162 9.30609 37801 ft 487 kts
2026-05-06 13:00 48.98910 9.31627 37821 ft 487 kts
2026-05-06 13:01 49.05649 9.32648 37829 ft 486 kts
2026-05-06 13:01 49.12381 9.33691 37824 ft 486 kts
2026-05-06 13:02 49.19105 9.34746 37831 ft 485 kts
2026-05-06 13:02 49.25813 9.35800 37827 ft 484 kts
2026-05-06 13:03 49.32506 9.36841 37834 ft 483 kts
2026-05-06 13:03 49.39183 9.37881 37836 ft 481 kts
2026-05-06 13:04 49.45832 9.38933 37826 ft 480 kts
2026-05-06 13:04 49.52464 9.39987 37819 ft 479 kts
2026-05-06 13:05 49.59084 9.41021 37817 ft 478 kts
2026-05-06 13:05 49.65701 9.42058 37806 ft 478 kts
2026-05-06 13:06 49.72316 9.43109 37796 ft 478 kts
2026-05-06 13:06 49.78930 9.44171 37790 ft 478 kts
2026-05-06 13:07 49.85550 9.45237 37779 ft 479 kts
2026-05-06 13:07 49.92137 9.46305 37771 ft 479 kts
2026-05-06 13:08 49.98773 9.47383 37764 ft 480 kts
2026-05-06 13:08 50.05417 9.48455 37762 ft 480 kts
2026-05-06 13:09 50.12068 9.49550 37759 ft 481 kts
2026-05-06 13:09 50.18720 9.50735 37756 ft 481 kts
2026-05-06 13:10 50.25375 9.51947 37755 ft 482 kts
2026-05-06 13:10 50.32033 9.53131 37764 ft 481 kts
2026-05-06 13:11 50.38678 9.54305 37765 ft 480 kts
2026-05-06 13:11 50.45316 9.55482 37760 ft 480 kts
2026-05-06 13:12 50.51952 9.56669 37766 ft 479 kts
2026-05-06 13:12 50.58573 9.57856 37760 ft 479 kts
2026-05-06 13:13 50.65185 9.59032 37764 ft 478 kts
2026-05-06 13:13 50.71791 9.60216 37762 ft 478 kts
2026-05-06 13:14 50.78394 9.61425 37758 ft 477 kts
2026-05-06 13:14 50.84994 9.62632 37755 ft 477 kts
2026-05-06 13:15 50.91595 9.63839 37747 ft 477 kts
2026-05-06 13:15 50.98195 9.65035 37754 ft 478 kts
2026-05-06 13:16 51.04802 9.66239 37752 ft 478 kts
2026-05-06 13:16 51.11374 9.67433 37750 ft 479 kts
2026-05-06 13:17 51.17993 9.68652 37769 ft 479 kts
2026-05-06 13:17 51.24610 9.69833 37764 ft 479 kts
2026-05-06 13:18 51.31247 9.70833 37768 ft 479 kts
2026-05-06 13:18 51.37835 9.71784 37776 ft 479 kts
2026-05-06 13:19 51.44470 9.72777 37789 ft 479 kts
2026-05-06 13:19 51.51113 9.73815 37789 ft 479 kts
2026-05-06 13:20 51.57746 9.74869 37785 ft 479 kts
2026-05-06 13:20 51.64382 9.75915 37796 ft 479 kts
2026-05-06 13:21 51.71017 9.76944 37802 ft 479 kts
2026-05-06 13:21 51.77649 9.77963 37800 ft 479 kts
2026-05-06 13:22 51.84286 9.79013 37807 ft 479 kts
2026-05-06 13:22 51.90919 9.80069 37821 ft 479 kts
2026-05-06 13:23 51.97553 9.81122 37836 ft 479 kts
2026-05-06 13:23 52.04178 9.82171 37832 ft 478 kts
2026-05-06 13:24 52.10799 9.83216 37834 ft 478 kts
2026-05-06 13:24 52.17371 9.84268 37849 ft 477 kts
2026-05-06 13:25 52.23982 9.85328 37843 ft 477 kts
2026-05-06 13:25 52.30590 9.86367 37846 ft 477 kts
2026-05-06 13:26 52.37193 9.87428 37860 ft 477 kts
2026-05-06 13:26 52.43793 9.88502 37838 ft 477 kts
2026-05-06 13:27 52.50396 9.89575 37850 ft 476 kts
2026-05-06 13:27 52.56992 9.90653 37845 ft 476 kts
2026-05-06 13:28 52.63592 9.91733 37844 ft 476 kts
2026-05-06 13:28 52.70193 9.92809 37844 ft 477 kts
2026-05-06 13:29 52.76793 9.93884 37845 ft 476 kts
2026-05-06 13:29 52.83391 9.94970 37849 ft 477 kts
2026-05-06 13:30 52.89991 9.96064 37851 ft 477 kts
2026-05-06 13:30 52.96589 9.97154 37849 ft 477 kts
2026-05-06 13:31 53.03189 9.98244 37851 ft 477 kts
2026-05-06 13:31 53.09747 9.99331 37855 ft 477 kts
2026-05-06 13:32 53.16356 10.00432 37850 ft 477 kts
2026-05-06 13:32 53.22955 10.01546 37848 ft 477 kts
2026-05-06 13:33 53.29552 10.02651 37852 ft 477 kts
2026-05-06 13:33 53.36152 10.03761 37867 ft 477 kts
2026-05-06 13:34 53.42750 10.04883 37869 ft 476 kts
2026-05-06 13:34 53.49345 10.06001 37899 ft 477 kts
2026-05-06 13:35 53.55943 10.07122 37903 ft 476 kts
2026-05-06 13:35 53.62541 10.08246 37909 ft 476 kts
2026-05-06 13:36 53.69133 10.09373 37908 ft 476 kts
2026-05-06 13:36 53.75717 10.10502 37899 ft 476 kts
2026-05-06 13:37 53.82297 10.11642 37907 ft 476 kts
2026-05-06 13:37 53.88887 10.12782 37894 ft 476 kts
2026-05-06 13:38 53.95437 10.13912 37884 ft 476 kts
2026-05-06 13:38 54.02025 10.15054 37887 ft 476 kts
2026-05-06 13:39 54.07499 10.16015 37900 ft 476 kts
2026-05-06 13:39 54.14088 10.17160 37912 ft 476 kts
2026-05-06 13:40 54.21794 10.18518 37918 ft 476 kts
2026-05-06 13:40 54.27273 10.19493 37924 ft 476 kts
2026-05-06 13:41 54.33866 10.20657 37935 ft 476 kts
2026-05-06 13:41 54.40461 10.21807 37930 ft 476 kts
2026-05-06 13:42 54.47053 10.22971 37926 ft 476 kts
2026-05-06 13:42 54.53649 10.24156 37919 ft 477 kts
2026-05-06 13:43 54.60245 10.25340 37924 ft 477 kts
2026-05-06 13:43 54.66844 10.26527 37917 ft 477 kts
2026-05-06 13:44 54.73437 10.27733 37912 ft 477 kts
2026-05-06 13:44 54.80029 10.29074 37910 ft 477 kts
2026-05-06 13:45 54.86617 10.30495 37931 ft 477 kts
2026-05-06 13:45 54.96505 10.32566 37921 ft 477 kts
2026-05-06 13:46 55.03098 10.33942 37922 ft 477 kts
2026-05-06 13:46 55.09687 10.35334 37927 ft 477 kts
2026-05-06 13:47 55.16280 10.36717 37933 ft 477 kts
2026-05-06 13:47 55.22831 10.38113 37936 ft 477 kts
2026-05-06 13:48 55.29422 10.39523 37946 ft 477 kts
2026-05-06 13:48 55.36016 10.40927 37968 ft 477 kts
2026-05-06 13:49 55.42613 10.42314 37963 ft 477 kts
2026-05-06 13:49 55.49206 10.43730 37959 ft 477 kts
2026-05-06 13:50 55.55800 10.45168 37940 ft 477 kts
2026-05-06 13:50 55.62393 10.46598 37939 ft 477 kts
2026-05-06 13:51 55.68985 10.48024 37943 ft 477 kts
2026-05-06 13:51 55.75580 10.49458 37942 ft 477 kts
2026-05-06 13:52 55.82173 10.50904 37938 ft 477 kts
2026-05-06 13:52 55.88769 10.52352 37952 ft 477 kts
2026-05-06 13:53 55.95365 10.53799 37948 ft 478 kts
2026-05-06 13:53 56.01958 10.55253 37945 ft 477 kts
2026-05-06 13:54 56.08551 10.56706 37947 ft 477 kts
2026-05-06 13:54 56.15147 10.58169 37962 ft 478 kts
2026-05-06 13:55 56.21745 10.59644 37952 ft 478 kts
2026-05-06 13:55 56.28347 10.61128 37956 ft 478 kts
2026-05-06 13:56 56.34949 10.62608 37956 ft 478 kts
2026-05-06 13:56 56.41552 10.64084 37969 ft 478 kts
2026-05-06 13:57 56.48162 10.65577 37960 ft 479 kts
2026-05-06 13:57 56.54772 10.67084 37955 ft 479 kts
2026-05-06 13:58 56.61384 10.68597 37953 ft 479 kts
2026-05-06 13:58 56.68001 10.70102 37972 ft 479 kts
2026-05-06 13:59 56.74625 10.71609 37961 ft 480 kts
2026-05-06 13:59 56.81250 10.73130 37956 ft 480 kts
2026-05-06 14:00 56.87878 10.74666 37954 ft 480 kts
2026-05-06 14:00 56.94465 10.76203 37980 ft 481 kts
2026-05-06 14:01 57.01102 10.77744 37973 ft 481 kts
2026-05-06 14:01 57.07736 10.79290 37966 ft 481 kts
2026-05-06 14:02 57.14374 10.80851 37974 ft 481 kts
2026-05-06 14:02 57.21009 10.82414 37979 ft 481 kts
2026-05-06 14:03 57.27648 10.83987 37970 ft 481 kts
2026-05-06 14:03 57.34287 10.85559 37965 ft 481 kts
2026-05-06 14:04 57.40929 10.87124 37965 ft 481 kts
2026-05-06 14:04 57.47571 10.88694 37998 ft 481 kts
2026-05-06 14:05 57.54215 10.90289 37987 ft 481 kts
2026-05-06 14:05 57.60856 10.91901 37979 ft 481 kts
2026-05-06 14:06 57.67502 10.93501 37975 ft 481 kts
2026-05-06 14:06 57.74150 10.95099 38005 ft 482 kts
2026-05-06 14:07 57.80810 10.96722 37977 ft 483 kts
2026-05-06 14:07 57.87474 10.98356 37973 ft 483 kts
2026-05-06 14:08 57.94141 10.99984 37972 ft 483 kts
2026-05-06 14:08 58.00807 11.01612 38009 ft 483 kts
2026-05-06 14:09 58.07482 11.03251 37993 ft 484 kts
2026-05-06 14:09 58.14155 11.04899 37986 ft 484 kts
2026-05-06 14:10 58.20784 11.06548 37984 ft 484 kts
2026-05-06 14:10 58.27502 11.08206 37983 ft 484 kts
2026-05-06 14:11 58.34181 11.09870 37983 ft 484 kts
2026-05-06 14:11 58.40857 11.11555 37975 ft 484 kts
2026-05-06 14:12 58.47532 11.13231 37982 ft 484 kts
2026-05-06 14:12 58.54162 11.14915 37980 ft 484 kts
2026-05-06 14:13 58.60841 11.16621 37989 ft 484 kts
2026-05-06 14:13 58.67516 11.18329 37988 ft 484 kts
2026-05-06 14:14 58.70859 11.19178 37780 ft 485 kts
2026-05-06 14:14 58.74224 11.20031 36767 ft 491 kts
2026-05-06 14:14 58.77612 11.20890 36012 ft 491 kts
2026-05-06 14:14 58.81008 11.21760 35162 ft 494 kts
2026-05-06 14:15 58.84430 11.22643 34265 ft 498 kts
2026-05-06 14:15 58.87846 11.23517 33193 ft 503 kts
2026-05-06 14:15 58.91352 11.24430 32279 ft 502 kts
2026-05-06 14:15 58.94806 11.25335 31418 ft 500 kts
2026-05-06 14:16 58.98167 11.26223 30595 ft 499 kts
2026-05-06 14:16 59.01619 11.27086 29592 ft 497 kts 358°
2026-05-06 14:16 59.05028 11.27496 28969 ft 494 kts 356°
2026-05-06 14:16 59.08456 11.27839 28433 ft 494 kts 356°
2026-05-06 14:17 59.11877 11.28142 27962 ft 492 kts 355°
2026-05-06 14:17 59.15292 11.28428 27445 ft 488 kts 355°
2026-05-06 14:17 59.18658 11.28707 26940 ft 483 kts 355°
2026-05-06 14:17 59.21999 11.28991 26458 ft 479 kts 355°
2026-05-06 14:18 59.25296 11.29288 26182 ft 468 kts 355°
2026-05-06 14:18 59.28530 11.29589 25929 ft 463 kts 355°
2026-05-06 14:18 59.31730 11.29882 25673 ft 460 kts 355°
2026-05-06 14:18 59.34851 11.30168 25421 ft 457 kts 355°
2026-05-06 14:19 59.38021 11.30461 25171 ft 455 kts 355°
2026-05-06 14:19 59.41183 11.30751 24959 ft 452 kts 355°
2026-05-06 14:19 59.44322 11.31038 24718 ft 450 kts 355°
2026-05-06 14:19 59.47439 11.31322 24470 ft 448 kts 355°
2026-05-06 14:20 59.50544 11.31606 24225 ft 446 kts 355°
2026-05-06 14:20 59.53633 11.31888 23985 ft 443 kts 355°
2026-05-06 14:20 59.56712 11.32170 23461 ft 442 kts 355°
2026-05-06 14:20 59.59775 11.32454 22743 ft 436 kts 355°
2026-05-06 14:21 59.62748 11.32748 22485 ft 421 kts 355°
2026-05-06 14:21 59.65649 11.33032 22038 ft 414 kts 355°
2026-05-06 14:21 59.68503 11.33301 21595 ft 409 kts 355°
2026-05-06 14:21 59.71331 11.33563 21111 ft 405 kts 355°
2026-05-06 14:22 59.74141 11.33819 20585 ft 402 kts 355°
2026-05-06 14:22 59.76923 11.34072 20083 ft 398 kts 355°
2026-05-06 14:22 59.79679 11.34322 19577 ft 395 kts 355°
2026-05-06 14:22 59.82413 11.34575 18966 ft 393 kts 355°
2026-05-06 14:23 59.85152 11.34825 18221 ft 395 kts 356°
2026-05-06 14:23 59.87907 11.35080 17388 ft 397 kts 356°
2026-05-06 14:23 59.90671 11.35340 16553 ft 398 kts 357°
2026-05-06 14:23 59.93444 11.35604 15706 ft 399 kts 357°
2026-05-06 14:24 59.96219 11.35871 14876 ft 399 kts 358°
2026-05-06 14:24 59.98993 11.36140 14097 ft 399 kts 358°
2026-05-06 14:24 60.01737 11.36410 13248 ft 386 kts 358°
2026-05-06 14:24 60.04349 11.36670 12375 ft 366 kts 359°
2026-05-06 14:25 60.06838 11.36911 11499 ft 351 kts 359°
2026-05-06 14:25 60.08435 11.37063 10927 ft 343 kts 359°
2026-05-06 14:25 60.11525 11.37360 10109 ft 322 kts
2026-05-06 14:25 60.12991 11.37501 9699 ft 313 kts
2026-05-06 14:26 60.15106 11.37699 9262 ft 295 kts
2026-05-06 14:26 60.17088 11.37886 8980 ft 276 kts
2026-05-06 14:26 60.18952 11.38065 8708 ft 261 kts
2026-05-06 14:26 60.20760 11.38233 8439 ft 260 kts
2026-05-06 14:27 60.22568 11.38398 8171 ft 258 kts
2026-05-06 14:27 60.24353 11.38567 7905 ft 256 kts
2026-05-06 14:27 60.26123 11.38734 7642 ft 254 kts
2026-05-06 14:27 60.27884 11.38904 7388 ft 253 kts
2026-05-06 14:28 60.29632 11.39075 7124 ft 251 kts 360°
2026-05-06 14:28 60.31370 11.39245 6862 ft 249 kts 360°
2026-05-06 14:28 60.33096 11.39416 6639 ft 247 kts
2026-05-06 14:28 60.34782 11.39584 6510 ft 239 kts 360°
2026-05-06 14:29 60.36438 11.39748 6384 ft 237 kts 359°
2026-05-06 14:29 60.38084 11.39820 6252 ft 235 kts 352°
2026-05-06 14:29 60.39588 11.38749 6121 ft 228 kts 323°
2026-05-06 14:29 60.40665 11.36470 5982 ft 224 kts 298°
2026-05-06 14:30 60.41124 11.33520 5837 ft 217 kts 273°
2026-05-06 14:30 60.40944 11.30562 5618 ft 212 kts 256°
2026-05-06 14:30 60.40544 11.27582 4978 ft 227 kts 249°
2026-05-06 14:30 60.39707 11.24916 4757 ft 223 kts 228°
2026-05-06 14:31 60.38473 11.23062 4524 ft 222 kts 208°
2026-05-06 14:31 60.37007 11.22078 4238 ft 221 kts 198°
2026-05-06 14:31 60.35529 11.21215 3932 ft 221 kts 197°
2026-05-06 14:31 60.34050 11.20350 3631 ft 222 kts 199°
2026-05-06 14:32 60.32559 11.19480 3320 ft 223 kts 199°
2026-05-06 14:32 60.31056 11.18603 3003 ft 226 kts 198°
2026-05-06 14:32 60.29544 11.17724 2691 ft 225 kts 199°
2026-05-06 14:32 60.28074 11.16869 2377 ft 214 kts 198°
2026-05-06 14:33 60.26678 11.16059 2091 ft 204 kts 199°
2026-05-06 14:33 60.25360 11.15294 1840 ft 189 kts 199°
2026-05-06 14:33 60.24142 11.14586 1556 ft 175 kts 198°
2026-05-06 14:33 60.23027 11.13938 1316 ft 159 kts 198°
2026-05-06 14:34 60.22012 11.13349 1104 ft 146 kts 197°
2026-05-06 14:34 60.21073 11.12807 900 ft 136 kts 197°
2026-05-06 14:34 60.20179 11.12282 735 ft 132 kts 196°
2026-05-06 14:34 60.19349 11.11804 683 ft 108 kts 196°
2026-05-06 14:35 60.18794 11.11479 681 ft 58 kts 195°
2026-05-06 14:35 60.18564 11.11334 681 ft 20 kts 205°
2026-05-06 14:35 60.18449 11.11161 683 ft 20 kts 237°
2026-05-06 14:35 60.18455 11.10928 681 ft 16 kts 285°
2026-05-06 14:36 60.18505 11.10758 682 ft 14 kts 357°
2026-05-06 14:36 60.18615 11.10815 681 ft 19 kts 15°
2026-05-06 14:36 60.18759 11.10899 683 ft 24 kts 16°
2026-05-06 14:36 60.18931 11.11000 683 ft 28 kts 16°
2026-05-06 14:37 60.19109 11.11101 684 ft 25 kts 15°
2026-05-06 14:37 60.19275 11.11197 685 ft 27 kts 16°
2026-05-06 14:37 60.19448 11.11298 681 ft 27 kts 16°
2026-05-06 14:37 60.19627 11.11400 683 ft 26 kts 16°
2026-05-06 14:38 60.19750 11.11442 682 ft 15 kts 328°
2026-05-06 14:38 60.19798 11.11222 680 ft 20 kts 287°
2026-05-06 14:38 60.19839 11.10931 680 ft 23 kts 286°
2026-05-06 14:38 60.19887 11.10601 684 ft 25 kts 287°
2026-05-06 14:39 60.19938 11.10258 685 ft 26 kts 287°
2026-05-06 14:39 60.19976 11.09956 685 ft 16 kts 269°
2026-05-06 14:39 60.19875 11.09863 683 ft 18 kts 196°
2026-05-06 14:39 60.19754 11.09791 685 ft 16 kts 197°
2026-05-06 14:40 60.19662 11.09753 680 ft 8 kts 157°
2026-05-06 14:40 60.19646 11.09847 685 ft 8 kts 106°
2026-05-06 14:40 60.19632 11.09951 681 ft 1 kts 106°
2026-05-06 14:40 60.19631 11.09957 681 ft 0 kts 105°